EW2591 Weather Reports


time (UTC)temp
C
wind
direction
speed
KPH
gust
KPH
rain 1hr
cm
rain 24hr
cm
rain mn
cm
humidity
%
barometer
mb
20260506202320 11 197 1.6 9.7 0.00 1.27 0.81 89
20260506201819 11 178 3.2 12.9 0.03 1.27 0.81 89
20260506201319 11 327 3.2 12.9 0.03 1.27 0.81 89
20260506200820 11 23 1.6 16.1 0.03 1.27 0.81 89
20260506200321 11 326 3.2 16.1 0.03 1.27 0.81 89
20260506195822 12 354 6.4 17.7 0.03 1.27 0.81 89
20260506195321 12 354 8.0 22.5 0.03 1.27 0.81 89
20260506194821 13 22 9.7 20.9 0.03 1.27 0.81 88
20260506194321 13 334 9.7 19.3 0.03 1.27 0.81 86
20260506193820 15 335 8.0 17.7 0.03 1.27 0.81 89
20260506193320 15 253 6.4 17.7 0.03 1.27 0.81 89
20260506192822 15 225 9.7 17.7 0.03 1.27 0.81 89
20260506192343 15 262 4.8 17.7 0.03 1.27 0.81 89
20260506191822 15 222 6.4 16.1 0.00 1.24 0.79 89
20260506191322 15 229 6.4 17.7 0.00 1.24 0.79 88
20260506190822 15 218 6.4 17.7 0.00 1.24 0.79 89
20260506190322 15 214 8.0 14.5 0.00 1.24 0.79 89
20260506185822 15 228 3.2 12.9 0.00 1.24 0.79 89
20260506185322 15 249 4.8 12.9 0.00 1.24 0.79 89
20260506184821 15 220 3.2 20.9 0.00 1.24 0.79 89
20260506184343 15 203 11.3 20.9 0.00 1.24 0.79 89
20260506183823 15 241 8.0 17.7 0.00 1.24 0.79 89
20260506183345 15 231 6.4 19.3 0.00 1.24 0.79 90
20260506182824 15 204 6.4 24.1 0.00 1.24 0.79 90
20260506182324 15 240 8.0 24.1 0.03 1.24 0.79 91
20260506181845 15 247 6.4 20.9 0.03 1.24 0.79 91
20260506181324 15 227 6.4 12.9 0.05 1.24 0.79 91
20260506180845 15 262 4.8 14.5 0.05 1.24 0.79 91
20260506180326 15 264 1.6 14.5 0.05 1.24 0.79 91
20260506175826 15 224 6.4 14.5 0.05 1.24 0.79 92
20260506175346 15 212 3.2 11.3 0.05 1.24 0.79 92
20260506174825 15 239 3.2 14.5 0.05 1.24 0.79 91
20260506174345 15 239 4.8 14.5 0.08 1.24 0.79 91
20260506173822 15 262 3.2 19.3 0.08 1.24 0.79 92
20260506173324 14 243 11.3 19.3 0.08 1.24 0.79 91
20260506172843 14 276 0.0 12.9 0.10 1.24 0.79 92
20260506172323 15 267 1.6 12.9 0.08 1.22 0.76 92
20260506171823 14 252 1.6 9.7 0.08 1.19 0.74 92
20260506171323 14 228 3.2 9.7 0.10 1.19 0.74 92
20260506170823 14 247 0.0 4.8 0.10 1.19 0.74 92
20260506170324 14 256 3.2 8.0 0.13 1.19 0.74 92
20260506165822 14 241 0.0 8.0 0.15 1.19 0.74 92
20260506165322 14 259 0.0 6.4 0.18 1.19 0.74 92
20260506164823 14 268 0.0 1.6 0.18 1.19 0.74 92
20260506164324 14 268 0.0 6.4 0.15 1.17 0.71 92
20260506163825 14 268 0.0 6.4 0.15 1.17 0.71 91
20260506163325 14 268 0.0 6.4 0.15 1.17 0.71 91
20260506162907 14 249 3.2 6.4 0.15 1.14 0.69 91
20260506162329 14 230 0.0 8.0 0.13 1.12 0.66 91
20260506161828 14 218 1.6 9.7 0.13 1.12 0.66 91
20260506161325 14 246 0.0 12.9 0.10 1.09 0.64 91
20260506160824 14 245 3.2 12.9 0.10 1.09 0.64 91
20260506160324 14 235 1.6 12.9 0.08 1.07 0.61 91
20260506155823 14 244 6.4 14.5 0.05 1.04 0.58 91
20260506155323 14 270 3.2 14.5 0.03 1.02 0.56 92
20260506154822 14 269 3.2 12.9 0.03 1.02 0.56 92
20260506154343 14 280 1.6 14.5 0.05 1.02 0.56 92
20260506153822 14 270 4.8 14.5 0.05 1.02 0.56 92
20260506153343 14 302 1.6 14.5 0.08 1.02 0.56 93
20260506152823 14 201 4.8 14.5 0.05 0.99 0.53 93
20260506152323 14 219 4.8 14.5 0.08 0.99 0.53 93
20260506151843 13 255 0.0 0.0 0.08 0.99 0.53 93
20260506151323 13 255 0.0 0.0 0.10 0.99 0.53 93
20260506150823 13 255 0.0 0.0 0.10 0.99 0.53 93
20260506150323 13 254 0.0 0.0 0.13 0.99 0.53 93
20260506145821 13 256 0.0 1.6 0.15 0.99 0.53 93
20260506145320 13 256 0.0 3.2 0.18 0.99 0.53 93
20260506144821 13 256 0.0 3.2 0.20 0.99 0.53 93
20260506144322 13 257 0.0 1.6 0.20 0.97 0.51 93
20260506143822 13 257 0.0 0.0 0.20 0.94 0.48 93
20260506143322 13 257 0.0 0.0 0.20 0.94 0.48 92
20260506142821 13 257 0.0 0.0 0.23 0.94 0.48 92
20260506142342 13 257 0.0 0.0 0.20 0.91 0.46 92
20260506141821 13 257 0.0 0.0 0.20 0.91 0.46 92
20260506141321 13 257 0.0 0.0 0.20 0.89 0.43 92
20260506140819 13 257 0.0 0.0 0.20 0.89 0.43 92
20260506140341 13 257 0.0 3.2 0.18 0.86 0.41 92
20260506135840 13 257 0.0 4.8 0.15 0.86 0.38 92
20260506135319 13 257 0.0 4.8 0.13 0.84 0.36 92
20260506134818 13 257 0.0 4.8 0.10 0.81 0.33 92
20260506134318 13 257 0.0 4.8 0.08 0.79 0.30 92
20260506133818 13 257 1.6 4.8 0.05 0.76 0.28 92
20260506133339 13 257 0.0 4.8 0.03 0.74 0.25 92
20260506132839 13 257 0.0 0.0 0.03 0.74 0.25 93
20260506132338 13 257 0.0 0.0 0.03 0.74 0.25 93
20260506131817 13 257 0.0 6.4 0.03 0.74 0.25 93
20260506131317 13 257 0.0 6.4 0.00 0.71 0.23 93
20260506130840 12 264 0.0 9.7 0.00 0.71 0.23 94
20260506130320 12 264 3.2 9.7 0.00 0.71 0.23 94
20260506125818 12 278 3.2 11.3 0.03 0.71 0.23 94
20260506125317 12 294 4.8 11.3 0.03 0.71 0.23 94
20260506124817 12 270 1.6 6.4 0.03 0.71 0.23 94
20260506124318 12 269 1.6 6.4 0.05 0.71 0.23 94
20260506123820 12 164 0.0 0.0 0.05 0.71 0.23 94
20260506123321 12 164 0.0 0.0 0.08 0.71 0.23 94
20260506122840 12 164 0.0 0.0 0.08 0.71 0.23 94
20260506122336 12 164 0.0 1.6 0.08 0.71 0.23 94
20260506121816 12 164 0.0 0.0 0.10 0.71 0.23 94
20260506121317 11 160 0.0 6.4 0.10 0.71 0.23 94
20260506120817 11 160 1.6 6.4 0.13 0.71 0.23 95
20260506120318 11 266 1.6 6.4 0.13 0.71 0.23 95
20260506115817 11 4 0.0 0.0 0.13 0.69 0.20 94
20260506115338 11 4 0.0 0.0 0.13 0.69 0.20 94
20260506114838 11 4 0.0 0.0 0.15 0.69 0.20 94
20260506114318 11 4 0.0 0.0 0.13 0.66 0.18 94
20260506113818 11 4 0.0 0.0 0.13 0.66 0.18 94
20260506113318 11 4 0.0 0.0 0.13 0.64 0.15 94
20260506112819 11 4 0.0 0.0 0.13 0.64 0.15 94
20260506112319 11 4 0.0 0.0 0.10 0.61 0.13 94
20260506111839 10 4 0.0 0.0 0.10 0.61 0.13 94
20260506111318 10 4 0.0 0.0 0.10 0.61 0.13 94
20260506110817 10 4 0.0 0.0 0.10 0.58 0.10 94
20260506110319 10 4 0.0 0.0 0.10 0.58 0.10 94
20260506105818 10 4 0.0 0.0 0.08 0.56 0.08 94
20260506105319 10 4 0.0 0.0 0.08 0.56 0.08 94
20260506104815 10 4 0.0 0.0 0.05 0.53 0.05 94
20260506104317 10 4 0.0 0.0 0.05 0.53 0.05 94
20260506103817 10 4 0.0 0.0 0.05 0.53 0.05 94
20260506103339 10 4 0.0 0.0 0.03 0.51 0.03 94
20260506102837 10 4 0.0 0.0 0.03 0.51 0.03 94
20260506102316 10 4 0.0 0.0 0.03 0.51 0.03 94
20260506101835 10 4 0.0 0.0 0.03 0.51 0.03 94
20260506101315 10 4 0.0 0.0 0.03 0.51 0.03 94
20260506100815 10 4 0.0 0.0 0.00 0.48 0.00 94
20260506100336 10 4 0.0 0.0 0.00 0.48 0.00 94
20260506095815 10 4 0.0 0.0 0.00 0.48 0.00 93
20260506095336 10 4 0.0 0.0 0.00 0.48 0.00 93
20260506094816 10 4 0.0 0.0 0.00 0.48 0.00 93
20260506094316 10 4 0.0 0.0 0.00 0.48 0.00 93
20260506093816 10 4 0.0 0.0 0.00 0.48 0.00 93
20260506093338 10 4 0.0 0.0 0.00 0.48 0.00 93
20260506092853 10 4 0.0 0.0 0.00 0.48 0.00 93
20260506092353 10 4 0.0 0.0 0.00 0.48 0.00 93
20260506091852 10 4 0.0 0.0 0.00 0.48 0.00 93
20260506091331 10 4 0.0 0.0 0.00 0.48 0.00 93
20260506090829 10 4 0.0 0.0 0.00 0.48 0.00 93
20260506090330 10 4 0.0 0.0 0.00 0.48 0.00 93
20260506085829 10 4 0.0 0.0 0.00 0.48 0.00 93
20260506085330 10 4 0.0 0.0 0.00 0.48 0.00 93
20260506084830 10 4 0.0 0.0 0.00 0.48 0.00 93
20260506084330 10 4 0.0 0.0 0.00 0.48 0.00 93
20260506083829 10 4 0.0 0.0 0.00 0.48 0.00 93
20260506083350 10 4 0.0 0.0 0.00 0.48 0.00 93
20260506082828 10 4 0.0 0.0 0.00 0.48 0.00 93
20260506082328 10 4 0.0 0.0 0.00 0.48 0.00 93
20260506081829 10 4 0.0 0.0 0.00 0.48 0.00 93
20260506081350 10 4 0.0 0.0 0.00 0.48 0.00 93
20260506080829 10 4 0.0 0.0 0.00 0.48 0.00 93
20260506080332 10 4 0.0 0.0 0.00 0.48 0.00 93
20260506073349 10 4 0.0 3.2 0.00 0.48 0.00 93
20260506072827 10 4 0.0 4.8 0.00 0.48 0.00 93
20260506072328 10 4 0.0 8.0 0.00 0.48 0.00 92
20260506071826 10 4 1.6 8.0 0.00 0.48 0.00 92
20260506071326 10 354 0.0 1.6 0.00 0.48 0.00 92
20260506070825 10 354 0.0 0.0 0.00 0.48 0.00 92
20260506070347 10 354 0.0 0.0 0.00 0.48 0.00 92
20260506062323 11 354 0.0 0.0 0.00 0.48 0.00 92
20260506061822 11 354 0.0 0.0 0.00 0.48 0.00 92
20260506061322 11 354 0.0 0.0 0.00 0.48 0.00 91
20260506060822 11 354 0.0 0.0 0.00 0.48 0.00 91
20260506060323 11 354 0.0 0.0 0.00 0.48 0.00 92
20260506051344 11 354 0.0 0.0 0.00 0.48 0.00 91
20260506050823 11 354 0.0 0.0 0.00 0.48 0.00 91
20260506050325 11 354 0.0 0.0 0.00 0.48 0.00 91
20260506044822 11 354 0.0 0.0 0.00 0.48 0.00 91
20260506044342 12 354 0.0 0.0 0.00 0.48 0.00 91
20260506043841 12 354 0.0 0.0 0.00 0.48 0.00 91
20260506043320 12 354 0.0 0.0 0.00 0.48 0.00 90
20260506042819 12 354 0.0 0.0 0.00 0.48 0.00 90
20260506042320 12 354 0.0 0.0 0.00 0.48 0.00 91
20260506041820 12 354 0.0 0.0 0.00 0.48 0.00 90
20260506041320 12 354 0.0 0.0 0.00 0.48 0.00 90
20260506040841 12 354 0.0 0.0 0.00 0.48 0.00 90
20260506040320 12 354 0.0 0.0 0.00 0.48 0.00 90
20260506035819 12 354 0.0 0.0 0.00 0.48 0.48 89
20260506035320 12 354 0.0 0.0 0.00 0.48 0.48 89
20260506034821 12 354 0.0 0.0 0.00 0.48 0.48 89
20260506034322 12 354 0.0 0.0 0.00 0.48 0.48 89
20260506033824 12 354 0.0 0.0 0.00 0.48 0.48 89
20260506033323 12 354 0.0 0.0 0.00 0.48 0.48 89
20260506032823 12 354 0.0 0.0 0.00 0.48 0.48 89
20260506032324 12 354 0.0 0.0 0.03 0.48 0.48 89
20260506031826 12 354 0.0 0.0 0.03 0.48 0.48 88
20260506031326 12 354 0.0 0.0 0.03 0.48 0.48 88
20260506030825 12 354 0.0 0.0 0.03 0.48 0.48 88
20260506030327 12 354 0.0 4.8 0.03 0.48 0.48 89
20260506025825 12 354 0.0 4.8 0.03 0.48 0.48 89
20260506025325 12 337 0.0 4.8 0.03 0.48 0.48 89
20260506024825 12 337 1.6 6.4 0.03 0.48 0.48 90
20260506024325 12 14 1.6 12.9 0.03 0.48 0.48 90
20260506023827 12 4 4.8 16.1 0.03 0.48 0.48 90
20260506023328 13 12 3.2 16.1 0.03 0.48 0.48 91
20260506022827 13 25 1.6 6.4 0.03 0.48 0.48 92
20260506022326 13 4 0.0 14.5 0.00 0.46 0.46 92
20260506021825 13 349 3.2 9.7 0.00 0.46 0.46 92
20260506021341 14 334 3.2 9.7 0.00 0.46 0.46 92
20260506020820 14 285 0.0 6.4 0.00 0.46 0.46 92
20260506020322 14 284 0.0 6.4 0.00 0.46 0.46 92
20260506015819 14 283 1.6 4.8 0.00 0.46 0.46 92
20260506015318 14 283 0.0 0.0 0.00 0.46 0.46 92
20260506014819 14 283 0.0 0.0 0.00 0.46 0.46 92
20260506014319 14 283 0.0 0.0 0.00 0.46 0.46 92
20260506013819 14 283 0.0 0.0 0.00 0.46 0.46 92
20260506013319 14 283 0.0 0.0 0.00 0.46 0.46 92
20260506012839 14 283 0.0 0.0 0.00 0.46 0.46 92
20260506012316 14 283 0.0 0.0 0.00 0.46 0.46 92
20260506011819 14 283 0.0 0.0 0.00 0.46 0.46 92
20260506011319 14 283 0.0 0.0 0.00 0.46 0.46 92
20260506010820 14 283 0.0 0.0 0.00 0.46 0.46 91
20260506010321 15 283 0.0 0.0 0.00 0.46 0.46 91
20260506005822 15 283 0.0 0.0 0.00 0.46 0.46 91
20260506005343 15 283 0.0 0.0 0.00 0.46 0.46 91
20260506004842 15 283 0.0 0.0 0.00 0.46 0.46 91
20260506004323 15 283 0.0 0.0 0.00 0.46 0.46 91
20260506003822 15 283 0.0 0.0 0.03 0.46 0.46 91
20260506003324 15 283 0.0 0.0 0.03 0.46 0.46 90
20260506002824 15 283 0.0 0.0 0.03 0.46 0.46 90
20260506002326 15 283 0.0 0.0 0.05 0.46 0.46 90
20260506001844 15 283 0.0 0.0 0.05 0.46 0.46 90
20260506001322 15 283 0.0 0.0 0.05 0.46 0.46 90
20260506000824 15 283 0.0 0.0 0.05 0.46 0.46 89
20260506000346 15 283 0.0 0.0 0.05 0.46 0.46 89
20260505235823 15 283 0.0 0.0 0.05 0.46 0.46 89
20260505235322 15 283 0.0 6.4 0.05 0.46 0.46 89
20260505234822 15 283 1.6 6.4 0.05 0.46 0.46 88
20260505234323 15 244 0.0 3.2 0.05 0.46 0.46 88
20260505233842 16 244 0.0 0.0 0.03 0.43 0.43 88
20260505233342 16 244 0.0 0.0 0.03 0.43 0.43 88
20260505232820 16 244 0.0 1.6 0.03 0.43 0.43 88
20260505232319 16 243 0.0 0.0 0.00 0.41 0.41 87
20260505231818 16 243 0.0 0.0 0.00 0.41 0.41 87
20260505231338 16 243 0.0 3.2 0.00 0.41 0.41 86
20260505230817 16 243 0.0 3.2 0.00 0.41 0.41 86
20260505230318 16 243 0.0 1.6 0.00 0.41 0.41 86
20260505225817 16 243 0.0 4.8 0.00 0.41 0.41 85
20260505225337 16 243 0.0 4.8 0.00 0.41 0.41 85
20260505224816 16 243 0.0 1.6 0.00 0.41 0.41 85
20260505224319 16 243 0.0 0.0 0.00 0.41 0.41 85
20260505223819 16 243 0.0 4.8 0.00 0.41 0.41 85
20260505223320 16 243 0.0 4.8 0.00 0.41 0.41 85
20260505222838 16 243 1.6 4.8 0.00 0.41 0.41 85
20260505222317 16 243 0.0 4.8 0.00 0.41 0.41 86
20260505221839 16 243 0.0 4.8 0.03 0.41 0.41 87
20260505221318 16 243 0.0 6.4 0.05 0.41 0.41 86
20260505220818 16 243 0.0 6.4 0.08 0.41 0.41 86
20260505220318 16 243 1.6 6.4 0.08 0.41 0.41 86
20260505215818 16 218 0.0 0.0 0.08 0.41 0.41 86
20260505215317 16 218 0.0 0.0 0.13 0.41 0.41 86
20260505214818 16 218 0.0 6.4 0.23 0.41 0.41 86
20260505214335 16 218 0.0 9.7 0.33 0.41 0.41 85
20260505213814 16 214 3.2 11.3 0.38 0.41 0.41 84
20260505213315 16 243 1.6 9.7 0.38 0.41 0.41 84
20260505212834 16 235 4.8 9.7 0.38 0.41 0.41 83
20260505212317 16 301 1.6 14.5 0.38 0.41 0.41 82
20260505211838 16 263 4.8 14.5 0.33 0.36 0.36 80
20260505211318 16 268 4.8 22.5 0.33 0.36 0.36 80
20260505210844 16 310 9.7 24.1 0.30 0.33 0.33 79
20260505210328 17 305 11.3 24.1 0.30 0.33 0.33 77
20260505205827 17 305 6.4 32.2 0.30 0.33 0.33 75
20260505205328 18 276 11.3 32.2 0.25 0.28 0.28 69
20260505204826 20 18 11.3 41.8 0.15 0.18 0.18 62
20260505204347 22 258 19.3 40.2 0.05 0.08 0.08 50
20260505203825 23 281 8.0 24.1 0.00 0.03 0.03 43
20260505203325 23 217 11.3 24.1 0.00 0.03 0.03 39
20260505202824 23 256 9.7 25.7 0.00 0.03 0.03 39